Location: Mascot Post Office (historical)
(40.2645°N, 99.5462°W)
Time: 02:37:24
(UTC+00:00)

Resurs 1-4 Rocket - Pass Details

Date: 14 July 2020
Orbit: 799 x 814 km, 98.6° (Epoch: 14 August)

Event Time Altitude Azimuth Distance (km) Brightness Sun altitude
Rises 09:48:46 0° 354° (N) 3,344 5.9 -14.7°
Reaches altitude 10° 09:52:10 10° 331° (NNW) 2,405 4.8 -14.3°
Maximum altitude 09:54:55 14° 300° (WNW) 2,099 4.1 -13.9°
Drops below altitude 10° 09:57:41 10° 268° (W) 2,393 4.1 -13.5°
Enters shadow 09:57:44 10° 268° (W) 2,405 4.1 -13.5°
